^^
Saratoga-Weather Station Historical Data
Daily Summary for June 1, 2021 Units:  English    Metric   Both
Daily Weekly Monthly Yearly Custom
  High: Low: Average:
Temperature: 56.7 °F 54.9 °F 55.9 °F
Dew Point: 54.9 °F 53.1 °F 54 °F
Humidity: 94% 92% 93%
Wind Speed: 8.9mph 0.9mph 3.4mph
Wind Gust: 10mph - -
Wind- - West
Pressure: 30 in 30 in -
Precipitation: 0 in    
Historical Graphs
 
 
Tabular Data for June 1, 2021
Time Temperature Dew Point Pressure Wind Wind Speed Wind Gust Humidity Rainfall Rate (Hourly) solar
00:00 56.3 °F 54.7 °F 30 in WNW 2.9 mph 8 mph 94% 0 in 0 W/m2
00:05 56.3 °F 54.7 °F 30 in WSW 4 mph 7 mph 94% 0 in 0 W/m2
00:10 56.5 °F 54.9 °F 30 in WSW 4.9 mph 7 mph 94% 0 in 0 W/m2
00:15 56.5 °F 54.5 °F 30 in WSW 4.9 mph 7 mph 93% 0 in 0 W/m2
00:20 56.5 °F 54.5 °F 30 in West 2.9 mph 8 mph 93% 0 in 0 W/m2
00:25 56.5 °F 54.5 °F 30 in West 2.9 mph 8 mph 93% 0 in 0 W/m2
00:30 56.5 °F 54.5 °F 30 in WSW 4 mph 8 mph 93% 0 in 0 W/m2
00:35 56.5 °F 54.5 °F 30 in West 6.9 mph 9 mph 93% 0 in 0 W/m2
00:40 56.5 °F 54.5 °F 30 in WSW 4 mph 9 mph 93% 0 in 0 W/m2
00:45 56.7 °F 54.7 °F 30 in West 2.9 mph 6 mph 93% 0 in 0 W/m2
00:50 56.5 °F 54.5 °F 30 in West 2 mph 9 mph 93% 0 in 0 W/m2
00:55 56.7 °F 54.7 °F 30 in WSW 2.9 mph 6 mph 93% 0 in 0 W/m2
01:00 56.7 °F 54.7 °F 30 in WSW 4 mph 4 mph 93% 0 in 0 W/m2
01:05 56.5 °F 54.5 °F 30 in WNW 6.9 mph 9 mph 93% 0 in 0 W/m2
01:10 56.5 °F 54.5 °F 30 in WSW 2.9 mph 8 mph 93% 0 in 0 W/m2
01:15 56.5 °F 54.5 °F 30 in WSW 4 mph 5 mph 93% 0 in 0 W/m2
01:20 56.5 °F 54.5 °F 30 in WSW 4 mph 6 mph 93% 0 in 0 W/m2
01:25 56.5 °F 54.5 °F 30 in West 2.9 mph 8 mph 93% 0 in 0 W/m2
01:30 56.5 °F 54.5 °F 30 in West 2.9 mph 7 mph 93% 0 in 0 W/m2
01:35 56.5 °F 54.5 °F 30 in West 2 mph 7 mph 93% 0 in 0 W/m2
01:40 56.5 °F 54.5 °F 30 in WNW 4 mph 4 mph 93% 0 in 0 W/m2
01:45 56.5 °F 54.5 °F 30 in West 4 mph 6 mph 93% 0 in 0 W/m2
01:50 56.5 °F 54.5 °F 30 in WNW 4.9 mph 9 mph 93% 0 in 0 W/m2
01:55 56.5 °F 54.5 °F 30 in WSW 4.9 mph 7 mph 93% 0 in 0 W/m2
02:00 56.5 °F 54.5 °F 30 in West 4 mph 9 mph 93% 0 in 0 W/m2
02:05 56.5 °F 54.5 °F 30 in WSW 6.9 mph 8 mph 93% 0 in 0 W/m2
02:10 56.5 °F 54.5 °F 30 in West 2 mph 8 mph 93% 0 in 0 W/m2
02:15 56.5 °F 54.5 °F 30 in WSW 2 mph 6 mph 93% 0 in 0 W/m2
02:20 56.5 °F 54.5 °F 30 in WSW 4.9 mph 8 mph 93% 0 in 0 W/m2
02:25 56.5 °F 54.5 °F 30 in WNW 4 mph 7 mph 93% 0 in 0 W/m2
02:30 56.5 °F 54.5 °F 30 in West 6 mph 9 mph 93% 0 in 0 W/m2
02:35 56.5 °F 54.5 °F 30 in WNW 2.9 mph 8 mph 93% 0 in 0 W/m2
02:40 56.5 °F 54.5 °F 30 in WNW 2.9 mph 7 mph 93% 0 in 0 W/m2
02:45 56.3 °F 54.3 °F 30 in WNW 2 mph 7 mph 93% 0 in 0 W/m2
02:50 56.1 °F 54.1 °F 30 in West 4 mph 6 mph 93% 0 in 0 W/m2
02:55 56.1 °F 54.1 °F 30 in NW 2 mph 6 mph 93% 0 in 0 W/m2
03:00 56.1 °F 54.1 °F 30 in West 6 mph 7 mph 93% 0 in 0 W/m2
03:05 56.1 °F 54.1 °F 30 in WNW 2 mph 6 mph 93% 0 in 0 W/m2
03:10 56.1 °F 54.1 °F 30 in West 2 mph 4 mph 93% 0 in 0 W/m2
03:15 55.9 °F 54 °F 30 in West 4 mph 4 mph 93% 0 in 0 W/m2
03:20 55.9 °F 54 °F 30 in WSW 2 mph 7 mph 93% 0 in 0 W/m2
03:25 55.9 °F 54 °F 30 in WSW 2.9 mph 6 mph 93% 0 in 0 W/m2
03:30 55.9 °F 54 °F 30 in West 2 mph 7 mph 93% 0 in 0 W/m2
03:35 55.9 °F 54 °F 30 in WSW 0.9 mph 3 mph 93% 0 in 0 W/m2
03:40 55.9 °F 54 °F 30 in West 0.9 mph 5 mph 93% 0 in 0 W/m2
03:45 55.9 °F 54 °F 30 in WSW 2.9 mph 6 mph 93% 0 in 0 W/m2
03:50 55.9 °F 54 °F 30 in WSW 4 mph 6 mph 93% 0 in 0 W/m2
03:55 55.9 °F 54 °F 30 in WSW 2.9 mph 5 mph 93% 0 in 0 W/m2
04:01 55.9 °F 54 °F 30 in West 0.9 mph 7 mph 93% 0 in 0 W/m2
04:06 55.9 °F 54 °F 30 in West 2.9 mph 7 mph 93% 0 in 0 W/m2
04:11 55.9 °F 54 °F 30 in WSW 2.9 mph 5 mph 93% 0 in 0 W/m2
04:16 55.9 °F 54 °F 30 in WNW 2.9 mph 7 mph 93% 0 in 0 W/m2
04:21 55.9 °F 54 °F 30 in WNW 2.9 mph 5 mph 93% 0 in 0 W/m2
04:26 55.9 °F 54 °F 30 in West 2 mph 4 mph 93% 0 in 0 W/m2
04:31 55.9 °F 54 °F 30 in WNW 4.9 mph 6 mph 93% 0 in 0 W/m2
04:36 55.9 °F 54 °F 30 in West 0.9 mph 3 mph 93% 0 in 0 W/m2
04:41 55.9 °F 54 °F 30 in SW 4 mph 7 mph 93% 0 in 0 W/m2
04:46 55.9 °F 53.6 °F 30 in WNW 6 mph 8 mph 92% 0 in 0 W/m2
04:51 55.9 °F 53.6 °F 30 in WNW 2.9 mph 8 mph 92% 0 in 0 W/m2
04:56 55.9 °F 53.6 °F 30 in West 2 mph 6 mph 92% 0 in 0 W/m2
05:01 55.9 °F 53.6 °F 30 in WNW 8 mph 8 mph 92% 0 in 0 W/m2
05:06 55.9 °F 53.6 °F 30 in WNW 0.9 mph 2 mph 92% 0 in 0 W/m2
05:11 55.9 °F 53.6 °F 30 in West 2 mph 2 mph 92% 0 in 0 W/m2
05:16 55.9 °F 53.6 °F 30 in WSW 2.9 mph 4 mph 92% 0 in 0 W/m2
05:21 55.9 °F 53.6 °F 30 in West 2 mph 6 mph 92% 0 in 0 W/m2
05:26 55.8 °F 53.4 °F 30 in WNW 2 mph 4 mph 92% 0 in 0 W/m2
05:31 55.8 °F 53.4 °F 30 in West 6 mph 6 mph 92% 0 in 0 W/m2
05:36 55.8 °F 53.4 °F 30 in WNW 2 mph 6 mph 92% 0 in 0 W/m2
05:41 55.8 °F 53.4 °F 30 in West 2.9 mph 7 mph 92% 0 in 0 W/m2
05:46 55.6 °F 53.2 °F 30 in WNW 8.9 mph 10 mph 92% 0 in 0 W/m2
05:51 55.6 °F 53.2 °F 30 in WNW 2 mph 7 mph 92% 0 in 0 W/m2
05:56 55.6 °F 53.2 °F 30 in WNW 2 mph 10 mph 92% 0 in 5 W/m2
06:01 55.6 °F 53.2 °F 30 in WNW 4 mph 4 mph 92% 0 in 7 W/m2
06:06 55.6 °F 53.2 °F 30 in West 8 mph 8 mph 92% 0 in 9 W/m2
06:11 55.6 °F 53.2 °F 30 in WSW 2 mph 9 mph 92% 0 in 11 W/m2
06:16 55.6 °F 53.2 °F 30 in West 2 mph 8 mph 92% 0 in 12 W/m2
06:21 55.6 °F 53.2 °F 30 in West 0.9 mph 9 mph 92% 0 in 14 W/m2
06:26 55.6 °F 53.2 °F 30 in West 2.9 mph 8 mph 92% 0 in 18 W/m2
06:31 55.6 °F 53.2 °F 30 in WNW 4 mph 7 mph 92% 0 in 16 W/m2
06:36 55.6 °F 53.2 °F 30 in WNW 2 mph 5 mph 92% 0 in 25 W/m2
06:41 55.4 °F 53.1 °F 30 in West 2.9 mph 7 mph 92% 0 in 14 W/m2
06:46 55.4 °F 53.4 °F 30 in West 2 mph 5 mph 93% 0 in 16 W/m2
06:51 55.4 °F 53.4 °F 30 in West 2 mph 6 mph 93% 0 in 25 W/m2
06:56 55.2 °F 53.2 °F 30 in West 6 mph 9 mph 93% 0 in 23 W/m2
07:01 55.2 °F 53.2 °F 30 in West 2.9 mph 5 mph 93% 0 in 19 W/m2
07:06 55.2 °F 53.2 °F 30 in West 2 mph 9 mph 93% 0 in 28 W/m2
07:11 55 °F 53.1 °F 30 in West 2.9 mph 4 mph 93% 0 in 26 W/m2
07:16 55 °F 53.1 °F 30 in West 2.9 mph 3 mph 93% 0 in 39 W/m2
07:21 55 °F 53.4 °F 30 in WSW 6.9 mph 8 mph 94% 0 in 40 W/m2
07:26 54.9 °F 53.2 °F 30 in West 2 mph 9 mph 94% 0 in 40 W/m2
07:31 54.9 °F 53.2 °F 30 in WNW 2.9 mph 7 mph 94% 0 in 54 W/m2
Juneau County Weather
Compliments of Weather Underground - 4 mb